Regional Weather Roundup
Issued by NWS

Home | Current Version | Previous Version | Graphics & Text | Print | Product List | Glossary On
Versions: 1 2 3 4 5 6 7 8 9 10 11 12 13 14 15 16 17 18 19 20 21 22 23 24 25 26 27 28 29 30 31 32 33 34 35 36 37 38 39 40 41 42 43 44 45 46 47 48 49 50
000
ASUS43 KLOT 142358
RWRIL

ILLINOIS REGIONAL WEATHER ROUNDUP
NATIONAL WEATHER SERVICE CHICAGO/ROMEOVILLE IL
700 PM CDT SUN SEP 14 2014

NOTE: "FAIR" INDICATES FEW OR NO CLOUDS BELOW 12,000 FEET WITH NO
SIGNIFICANT WEATHER AND/OR OBSTRUCTIONS TO VISIBILITY.

* THESE STATIONS ARE NOT UNDER NWS QUALITY CONTROL. THEY ALSO MAY NOT
  REPORT WEATHER SUCH AS PRECIPITATION OR FOG.

ILZ001-002-007-009-015-016-024-150100-
NORTHWEST ILLINOIS

CITY           SKY/WX    TMP DP  RH WIND       PRES   REMARKS
MOLINE         CLEAR     61  48  62 CALM      30.16F
6HR MIN TEMP:  61; 6HR MAX TEMP:  68;

$$

ILZ003-004-008-010-011-017-018-150100-
NORTH CENTRAL ILLINOIS

CITY           SKY/WX    TMP DP  RH WIND       PRES   REMARKS
ROCKFORD       NOT AVBL
$$

ILZ005-006-012>014-019>023-150100-
NORTHEAST ILLINOIS

CITY           SKY/WX    TMP DP  RH WIND       PRES   REMARKS
CHICAGO-OHARE  PTCLDY    62  43  49 SW6       30.17F
6HR MIN TEMP:  60; 6HR MAX TEMP:  65;

CHICAGO-MIDWAY PTCLDY    64  43  46 SW7       30.18S
6HR MIN TEMP:  63; 6HR MAX TEMP:  67;

AURORA         CLEAR     61  44  53 SW5       30.18S
6HR MIN TEMP:  61; 6HR MAX TEMP:  66;

WAUKEGAN       CLEAR     57  46  66 CALM      30.16S
6HR MIN TEMP:  57; 6HR MAX TEMP:  64;

DUPAGE AIRPORT CLEAR     60  45  57 SW5       30.18R
6HR MIN TEMP:  60; 6HR MAX TEMP:  67;

WHEELING       CLEAR     63  43  48 SW6       30.19S
6HR MIN TEMP:  61; 6HR MAX TEMP:  66;

NORTHERLY ISL    N/A     64  41  42 S8          N/A
$$

LMZ740>746-150100-
SOUTHERN LAKE MICHIGAN

STATION/POSITION SKY/WX   TEMP    WIND        PRES    VSBY  WAVE
                          AIR SEA DIR/SP/G                  HT/PER
                          (F)     (DEG/KT/KT) (MB)    (MI)  (FT/S)
SOUTHERN BUOY              60 65  200/ 12/ 14 1022.2F         2/ 4
WAUKEGAN HARBOR            64     230/  9/ 10   N/A
HARRISON CRIB              64     210/ 10/ 12   N/A
BURNHAM HARBOR             64     190/  7/ 11   N/A
CALUMET HARBOR             64     200/  7/  8 1020.8F
MICHIGAN CITY              63     210/  5/  6   N/A
MICHIGAN CITY 6N           63 65  210/  8/ 10   N/A           1
ST. JOSEPH                 62 67  200/  6/  8   N/A           1/ 3
$$

ILZ025>027-034>036-040-047-049-050-058-095>099-150100-
WEST-CENTRAL ILLINOIS

CITY           SKY/WX    TMP DP  RH WIND       PRES   REMARKS
$$

ILZ028>032-037-038-041>044-048-051>054-059>061-150100-
CENTRAL ILLINOIS

CITY           SKY/WX    TMP DP  RH WIND       PRES   REMARKS
PEORIA         NOT AVBL
SPRINGFIELD    NOT AVBL
TAYLORVILLE    NOT AVBL
$$

ILZ033-039-045-046-055>057-062-063-150100-
EAST-CENTRAL ILLINOIS

CITY           SKY/WX    TMP DP  RH WIND       PRES   REMARKS
MATTOON        CLEAR     60  51  72 S3        30.20S
$$

ILZ079-100>102-150100-
SOUTHWEST ILLINOIS

CITY           SKY/WX    TMP DP  RH WIND       PRES   REMARKS
$$

ILZ064>066-069>071-074>076-080>082-084>086-088>090-092>094-150100-
SOUTH-CENTRAL ILLINOIS

CITY           SKY/WX    TMP DP  RH WIND       PRES   REMARKS
CARBONDALE     CLEAR     64  54  69 CALM      30.20S
6HR MIN TEMP:  64; 6HR MAX TEMP:  72;

$$

ILZ067-068-072-073-078-083-087-091-150100-
SOUTHEAST ILLINOIS

CITY           SKY/WX    TMP DP  RH WIND       PRES   REMARKS
$$

ABBREVIATIONS USED IN REMARKS
   TC - TEMPERATURE IN CELSIUS
  WCI - WIND CHILL INDEX
   HX - HEAT INDEX
  VSB - VISIBILITY
$$



USA.gov is the U.S. government's official web portal to all federal, state and local government web resources and services.